This demonstration page uses our WeatherBlox Daily Observations layout. Learn more.

39.92423, -83.80882

Hourly Observations for April 8, 2019

Temp ( °F °C ) Dew Point ( °F °C ) Humidity (%) Winds ( mph kmh ) Pressure ( in mb ) Visibility ( mi km ) Precip ( " mm )
12:46 am 00:46 Mostly Cloudy 61 16 61 16 100 100 SSW 14 22 29.9 1012 10 16.0934 0 0
12:53 am 00:53 Partly Cloudy 61 16 61 16 100 100 SW 14 22 29.89 1012 10 16.0934 0 0
12:56 am 00:56 Partly Cloudy 61 16.1 60 15.6 97 97 SW 15 24 29.9 1012 10 16.0934 0 0
1:11 am 01:11 Mostly Cloudy 63 17 61 16 94 94 SW 13 20 29.89 1012 10 16.0934 0 0
1:48 am 01:48 Mostly Clear 61 16 59 15 94 94 SW 14 22 29.89 1012 10 16.0934 0 0
1:56 am 01:56 Mostly Clear 61 16.1 59 15 93 93 SW 13 20 29.9 1012 10 16.0934 0 0
2:38 am 02:38 Mostly Cloudy 61 16 59 15 94 94 SW 13 20 29.88 1012 10 16.0934 0 0
2:56 am 02:56 Cloudy 61 16.1 59 15 93 93 SW 16 26 29.88 1012 10 16.0934 0 0
3:56 am 03:56 Mostly Cloudy 60 15.6 58 14.4 93 93 W 10 17 29.88 1012 10 16.0934 0 0
4:07 am 04:07 Mostly Cloudy 61 16 57 14 88 88 WSW 10 17 29.89 1012 10 16.0934 0 0
4:40 am 04:40 Cloudy 61 16 57 14 88 88 WSW 9 15 29.9 1012 10 16.0934 0 0
4:56 am 04:56 Cloudy 60 15.6 58 14.4 93 93 WSW 9 15 29.91 1013 10 16.0934 0 0
5:46 am 05:46 Mostly Cloudy 59 15 57 14 94 94 WSW 8 13 29.89 1012 10 16.0934 0 0
5:56 am 05:56 Mostly Clear 58 14.4 57 13.9 97 97 WSW 7 11 29.9 1012 10 16.0934 0 0
6:56 am 06:56 Mostly Cloudy 58 14.4 57 13.9 97 97 S 9 15 29.88 1012 10 16.0934 0 0
7:42 am 07:42 Mostly Cloudy with Mist and Fog 57 14 57 14 100 100 SW 13 20 29.9 1012 6 9.65604 0 0
7:56 am 07:56 Mostly Cloudy with Mist and Fog 58 14.4 58 14.4 100 100 WSW 12 19 29.91 1013 5 8.0467 0 0
8:56 am 08:56 Mostly Cloudy 59 15 59 15 100 100 W 10 17 29.91 1013 7 11.26538 0 0
9:07 am 09:07 Mostly Cloudy 59 15 59 15 100 100 W 8 13 29.9 1013 7 11.26538 0 0
9:56 am 09:56 Sunny 60 15.6 59 15 96 96 W 7 11 29.92 1013 10 16.0934 0 0
10:56 am 10:56 Sunny 62 16.7 59 15 90 90 WSW 6 9 29.92 1013 10 16.0934 0 0
11:56 am 11:56 Partly Cloudy 63 17.2 59 15 87 87 SW 9 15 29.93 1013 10 16.0934 0 0
12:56 pm 12:56 Sunny 64 17.8 59 15 84 84 SSW 9 15 29.91 1013 10 16.0934 0 0
1:56 pm 13:56 Partly Cloudy 65 18.3 58 14.4 78 78 WSW 10 17 29.9 1012 10 16.0934 0 0
2:17 pm 14:17 Mostly Cloudy 64 18 57 14 78 78 W 10 17 29.88 1012 10 16.0934 0 0
2:24 pm 14:24 Partly Cloudy 64 18 57 14 78 78 W 12 19 29.88 1012 10 16.0934 0 0
2:56 pm 14:56 Partly Cloudy 67 19.4 59 15 76 76 WSW 10 17 29.88 1012 10 16.0934 0 0
3:56 pm 15:56 Mostly Sunny 68 20 58 14.4 70 70 WSW 12 19 29.86 1011 10 16.0934 0 0
4:56 pm 16:56 Mostly Cloudy 69 20.6 57 13.9 66 66 WNW 12 19 29.85 1011 10 16.0934 0 0
5:56 pm 17:56 Partly Cloudy 69 20.6 56 13.3 63 63 W 8 13 29.84 1011 10 16.0934 0 0
6:56 pm 18:56 Sunny 69 20.6 56 13.3 63 63 W 5 7 29.83 1010 10 16.0934 0 0
7:56 pm 19:56 Sunny 64 17.8 55 12.8 73 73 WNW 5 7 29.82 1010 10 16.0934 0 0
8:56 pm 20:56 Clear 62 16.7 55 12.8 78 78 Calm 29.82 1010 10 16.0934 0 0
9:56 pm 21:56 Clear 58 14.4 54 12.2 87 87 SSW 5 7 29.83 1010 10 16.0934 0 0
10:56 pm 22:56 Clear 58 14.4 54 12.2 87 87 SSW 6 9 29.82 1010 10 16.0934 0 0
11:56 pm 23:56 Clear 57 13.9 53 11.7 87 87 SSW 6 9 29.81 1010 10 16.0934 0 0

Powered by AerisWeather